Regional Weather Roundup
Issued by NWS Cleveland, OH

Home | Current Version | Previous Version | Graphics & Text | Print | Product List | Glossary On
Versions: 1 2 3 4 5 6 7 8 9 10 11 12 13 14 15 16 17 18 19 20 21 22 23 24 25 26 27 28 29 30 31 32 33 34 35 36 37 38 39 40 41 42 43 44 45 46 47 48 49 50
387
ASUS41 KCLE 280910
RWRCLE
OHIO REGIONAL WEATHER ROUNDUP
NATIONAL WEATHER SERVICE CLEVELAND, OH
500 AM EDT SAT MAY 28 2016

NOTE: "FAIR" INDICATES FEW OR NO CLOUDS BELOW 12,000 FEET WITH NO
SIGNIFICANT WEATHER AND/OR OBSTRUCTIONS TO VISIBILITY.

OHZ001>008-015>018-024>027-034-035-043-044-281000-
   NORTHWEST OHIO

CITY           SKY/WX    TMP DP  RH WIND       PRES   REMARKS
DEFIANCE       CLEAR     71  61  70 S3        29.98S
FINDLAY        PTCLDY    69  60  73 S6        30.00R
TOLEDO EXPRESS CLEAR     67  61  81 S3        29.99R
TOLEDO EXEC    CLEAR     70  60  70 S6        30.00S
LIMA           CLEAR     68  62  81 S6        30.01R
$$

OHZ009>014-019>023-028>033-038-089-281000-
   NORTHEAST OHIO

CITY           SKY/WX    TMP DP  RH WIND       PRES   REMARKS
CLE-HOPKINS    PTCLDY    73  63  70 S9        30.05S
CLE-LAKEFRONT  PTCLDY    75  64  68 S7        30.02R
CUY CO. ARPT   NOT AVBL
LORAIN-ELYRIA  CLEAR     68  62  81 S8        30.04R
ASHTABULA      PTCLDY    67  64  90 S5        30.07R
AKRON-CANTON   PTCLDY    69  63  81 CALM      30.07S
WOOSTER        PTCLDY    65  63  93 CALM      30.07R
MANSFIELD      CLEAR     68  63  84 S6        30.06R
YOUNGSTOWN     PTCLDY    65  62  90 S5        30.08R
$$

OHZ042-051>053-060>062-070>072-077>081-281000-
  SOUTHWEST OHIO

CITY           SKY/WX    TMP DP  RH WIND       PRES   REMARKS
CINC-COVINGTON PTCLDY    68  65  90 S6        30.03R
CINC-LUNKEN    PTCLDY    64  64 100 CALM      30.03R FOG
HAMILTON       PTCLDY    66  64  93 CALM      30.03R
DAYTON         PTCLDY    72  64  76 S10       30.03R
WRIGHT-PAT AFB PTCLDY    69  65  88 CALM      30.03R
DAYTON GENERAL MOCLDY    69  63  81 S7        30.03R
WILMINGTON     CLOUDY    70  64  81 S7        30.04R
$$

OHZ036-037-039>041-045>050-054>059-063>069-073>076-082>088-281000-
  CENTRAL AND SOUTHEAST OHIO

CITY           SKY/WX    TMP DP  RH WIND       PRES   REMARKS
COLUMBUS       PTCLDY    68  65  90 CALM      30.04R
OSU AIRPORT    PTCLDY    70  64  81 SE3       30.04R
BOLTON FIELD   PTCLDY    65  64  96 CALM      30.05R
RICKENBACK AFB PTCLDY    67  64  90 CALM      30.03S
NEWARK         CLOUDY    66  63  90 CALM      30.05R
MARION         PTCLDY    68  62  81 S7        30.04S
LANCASTER      MOCLDY    68  65  90 SE6       30.05R
ZANESVILLE     CLOUDY    69  64  84 CALM      30.06R
NEW PHILLY     CLOUDY    67  63  87 SE3       30.07R FOG
$$




USA.gov is the U.S. government's official web portal to all federal, state and local government web resources and services.